Weather in Mamak

Turkey     39°55′01″N   32°55′57″E
temp.,
°C
wind,
m/s
gust,
m/s
humid.,
%
clouds,
%
prec.,
mm/h
press.,
hPa
HPBL,
m
7 august, sun
sun700:00+18nw1288100 5.4 1009186
03:00+19wnw117032 7.8 1007170
06:00+18n11780 0.0 100712
09:00+22ne22560 0.0 1007823
12:00+26ene21411 0.0 10061787
15:00+29nne543496 0.0 10042565
18:00+28nne43347 0.1 10041796
21:00+24nne37394 0.1 1006219
8 august, mon
mon800:00+21nne355788 0.4 1007180
03:00+20ne226436 0.4 100853
06:00+18ene22710 0.0 100928
09:00+23ne23532 0.0 1009669
12:00+27ne33350 0.0 10091739
15:00+29ne33251 0.0 10072649
18:00+29ene54211 0.0 10062637
21:00+25ene34290 0.0 100860
9 august, tue
tue900:00+22ene35470 0.0 100990
03:00+20ne33600 0.0 100946
06:00+19ene22651 0.0 101018
09:00+23ene22490 0.0 1009606
12:00+27nne22331 0.0 10081983
15:00+30nw23267 0.0 10062801
18:00+29n552719 0.0 10061483
21:00+25nne34310 0.0 100767
10 august, wed
wed1000:00+23ne34340 0.0 100766
03:00+21ne22520 0.0 100727
06:00+19ne22585 0.0 100720
09:00+24n01435 0.0 1007589
12:00+28nnw223122 0.0 10062044
15:00+28w13307 0.1 10051714
18:00+28nne553215 0.0 10051596
21:00+23n484568 0.0 1006305
11 august, thu
thu1100:00+22wnw235095 0.0 1007153
03:00+20nnw115285 0.0 100714
06:00+20nnw234650 0.0 1008218
09:00+22nnw233843 0.1 1008473
12:00+27nw442919 0.0 10081372
15:00+28nw642911 0.0 10071930
18:00+28n54300 0.0 10071657
21:00+23n485299 0.0 1008351